Location: Campolattaro
(41.2833°N, 14.7333°E)
Time: 06:29:23
(UTC+00:00)

Cosmos 1821 Rocket - Pass Details

Date: 19 May 2025
Orbit: 943 x 1004 km, 82.9° (Epoch: 21 June)

Event Time Altitude Azimuth Distance (km) Brightness Sun altitude
Rises 20:30:09 0° 357° (N) 3,633 7.9 -19.9°
Reaches altitude 10° 20:32:46 10° 4° (N) 2,678 7.0 -20.2°
Maximum altitude 20:38:38 48° 78° (ENE) 1,223 4.3 -20.8°
Enters shadow 20:40:28 37° 122° (ESE) 1,432 4.4 -21.0°
